timestamp,surface_pressure_avg,surface_temp_avg,battery_voltage,lat,long
2020-09-29 00:09:01+00:00,307.3046,14.7,12.81,47.84626,-54.09684
2020-09-29 00:19:01+00:00,305.8914,14.64,12.81,47.84626,-54.09684
2020-09-29 00:29:01+00:00,294.2597,14.7,12.81,47.84626,-54.09684
2020-09-29 00:39:01+00:00,282.7513,14.7,12.81,47.84626,-54.09684
2020-09-29 00:49:01+00:00,277.9397,14.7,12.81,47.84626,-54.09684
2020-09-29 00:59:01+00:00,272.8031,14.66,12.81,47.84626,-54.09684
2020-09-29 01:09:01+00:00,262.6931,14.61,12.81,47.84626,-54.09684
2020-09-29 01:19:01+00:00,254.8914,14.65,12.81,47.84626,-54.09684
2020-09-29 01:29:01+00:00,250.5197,14.64,12.81,47.84626,-54.09684
2020-09-29 01:39:01+00:00,245.8147,14.65,12.81,47.84626,-54.09684
2020-09-29 01:49:01+00:00,238.9864,14.66,12.81,47.84626,-54.09684
2020-09-29 01:59:01+00:00,232.6315,14.65,12.81,47.84626,-54.09684
2020-09-29 02:09:01+00:00,226.1514,14.67,12.81,47.84626,-54.09684
2020-09-29 02:19:01+00:00,220.9697,14.68,12.81,47.84626,-54.09684
2020-09-29 02:29:01+00:00,216.6614,14.69,12.81,47.84626,-54.09684
2020-09-29 02:39:01+00:00,211.8081,14.7,12.81,47.84626,-54.09684
2020-09-29 02:49:01+00:00,211.4865,14.7,12.81,47.84626,-54.09684
2020-09-29 02:59:01+00:00,211.5914,14.7,12.81,47.84626,-54.09684
2020-09-29 03:09:01+00:00,207.5681,14.7,12.81,47.84626,-54.09684
2020-09-29 03:19:01+00:00,204.8648,14.7,12.81,47.84626,-54.09684
2020-09-29 03:29:01+00:00,207.3581,14.7,12.81,47.84626,-54.09684
2020-09-29 03:39:01+00:00,209.1615,14.7,12.81,47.84626,-54.09684
2020-09-29 03:49:01+00:00,205.8014,14.7,12.81,47.84626,-54.09684
2020-09-29 03:59:01+00:00,203.3165,14.7,12.81,47.84626,-54.09684
2020-09-29 04:09:01+00:00,205.1264,14.7,12.81,47.84626,-54.09684
2020-09-29 04:19:01+00:00,205.1697,14.7,12.73,47.84626,-54.09684
2020-09-29 04:29:01+00:00,202.5498,14.7,12.73,47.84626,-54.09684
2020-09-29 04:39:01+00:00,200.5782,14.7,12.73,47.84626,-54.09684
2020-09-29 04:49:01+00:00,199.0848,14.74,12.73,47.84626,-54.09684
2020-09-29 04:59:01+00:00,201.2931,14.71,12.73,47.84626,-54.09684
2020-09-29 05:09:01+00:00,206.4514,14.7,12.73,47.84626,-54.09684
2020-09-29 05:19:01+00:00,206.9715,14.7,12.73,47.84626,-54.09684
2020-09-29 05:29:01+00:00,206.4231,14.7,12.73,47.84626,-54.09684
2020-09-29 05:39:01+00:00,210.9131,14.7,12.73,47.84626,-54.09684
2020-09-29 05:49:01+00:00,217.5248,14.7,12.73,47.84626,-54.09684
2020-09-29 05:59:01+00:00,219.8781,14.72,12.73,47.84626,-54.09684
2020-09-29 06:09:01+00:00,223.2498,14.77,12.73,47.84626,-54.09684
2020-09-29 06:19:01+00:00,229.9881,14.7,12.73,47.84626,-54.09684
2020-09-29 06:29:01+00:00,236.4214,14.7,12.73,47.84626,-54.09684
2020-09-29 06:39:01+00:00,239.7198,14.7,12.73,47.84626,-54.09684
2020-09-29 06:49:01+00:00,243.8797,14.65,12.73,47.84626,-54.09684
2020-09-29 06:59:01+00:00,250.3314,14.6,12.73,47.84626,-54.09684
2020-09-29 07:09:01+00:00,258.6214,14.6,12.73,47.84626,-54.09684
2020-09-29 07:19:01+00:00,262.2747,14.65,12.73,47.84626,-54.09684
2020-09-29 07:29:01+00:00,264.1081,14.6,12.73,47.84626,-54.09684
2020-09-29 07:39:01+00:00,268.7164,14.6,12.73,47.84626,-54.09684
2020-09-29 07:49:01+00:00,276.3797,14.66,12.73,47.84626,-54.09684
2020-09-29 07:59:01+00:00,280.4264,14.58,12.73,47.84626,-54.09684
2020-09-29 08:09:01+00:00,283.2314,14.59,12.73,47.84626,-54.09684
2020-09-29 08:19:01+00:00,287.0298,14.5,12.73,47.84626,-54.09684
2020-09-29 08:29:01+00:00,296.6497,14.5,12.73,47.84626,-54.09684
2020-09-29 08:39:01+00:00,299.7763,14.52,12.73,47.84626,-54.09684
2020-09-29 08:49:01+00:00,303.7681,14.51,12.73,47.84626,-54.09684
2020-09-29 08:59:01+00:00,309.7163,14.56,12.73,47.84626,-54.09684
2020-09-29 09:09:01+00:00,317.8397,14.55,12.73,47.84626,-54.09684
2020-09-29 09:19:01+00:00,319.6263,14.5,12.65,47.84626,-54.09684
2020-09-29 09:29:01+00:00,323.758,14.5,12.65,47.84626,-54.09684
2020-09-29 09:39:01+00:00,330.6946,14.5,12.65,47.84626,-54.09684
2020-09-29 09:49:01+00:00,331.8713,14.5,12.65,47.84626,-54.09684
2020-09-29 09:59:01+00:00,328.3697,14.5,12.65,47.84626,-54.09684
2020-09-29 10:09:01+00:00,331.6846,14.5,12.65,47.84626,-54.09684
2020-09-29 10:19:01+00:00,333.8879,14.54,12.65,47.84626,-54.09684
2020-09-29 10:29:01+00:00,331.0913,14.51,12.65,47.84626,-54.09684
2020-09-29 10:39:01+00:00,328.418,14.53,12.65,47.84626,-54.09684
2020-09-29 10:49:01+00:00,330.908,14.54,12.65,47.84626,-54.09684
2020-09-29 10:59:01+00:00,328.4413,14.6,12.65,47.84626,-54.09684
2020-09-29 11:09:01+00:00,323.428,14.6,12.65,47.84626,-54.09684
2020-09-29 11:19:01+00:00,322.1313,14.6,12.73,47.84626,-54.09684
2020-09-29 11:29:01+00:00,319.1463,14.6,12.73,47.84626,-54.09684
2020-09-29 11:39:01+00:00,312.3747,14.69,12.73,47.84626,-54.09684
2020-09-29 11:49:01+00:00,308.2648,14.7,12.73,47.84626,-54.09684
2020-09-29 11:59:01+00:00,307.0197,14.73,12.73,47.84626,-54.09684
2020-09-29 12:09:01+00:00,301.7813,14.7,12.73,47.84626,-54.09684
2020-09-29 12:19:01+00:00,293.2946,14.6,13.37,47.84626,-54.09684
2020-09-29 12:29:01+00:00,289.7881,14.65,13.37,47.84626,-54.09684
2020-09-29 12:39:01+00:00,286.3197,14.7,13.37,47.84626,-54.09684
2020-09-29 12:49:01+00:00,280.5515,14.7,13.37,47.84626,-54.09684
2020-09-29 12:59:01+00:00,275.5181,14.69,13.37,47.84626,-54.09684
2020-09-29 13:09:01+00:00,268.9114,14.7,13.37,47.84626,-54.09684
2020-09-29 13:19:01+00:00,261.8881,14.69,14.0,47.84626,-54.09684
2020-09-29 13:29:01+00:00,255.4547,14.69,14.0,47.84626,-54.09684
2020-09-29 13:39:01+00:00,249.6464,14.69,14.0,47.84626,-54.09684
2020-09-29 13:49:01+00:00,239.7481,14.69,14.0,47.84626,-54.09684
2020-09-29 13:59:01+00:00,233.3564,14.69,14.0,47.84626,-54.09684
2020-09-29 14:09:01+00:00,230.2181,14.7,14.0,47.84626,-54.09684
2020-09-29 14:19:01+00:00,226.0214,14.7,14.48,47.84626,-54.09684
2020-09-29 14:29:01+00:00,219.3081,14.7,14.48,47.84626,-54.09684
2020-09-29 14:39:01+00:00,215.5798,14.7,14.48,47.84626,-54.09684
2020-09-29 14:49:01+00:00,211.3331,14.7,14.48,47.84626,-54.09684
2020-09-29 14:59:01+00:00,204.1065,14.7,14.48,47.84626,-54.09684
2020-09-29 15:09:01+00:00,200.3815,14.7,14.48,47.84626,-54.09684
2020-09-29 15:19:01+00:00,200.0248,14.74,13.92,47.84626,-54.09684
2020-09-29 15:29:01+00:00,198.9848,14.8,13.92,47.84626,-54.09684
2020-09-29 15:39:01+00:00,195.1348,14.88,13.92,47.84626,-54.09684
2020-09-29 15:49:01+00:00,194.0081,14.9,13.92,47.84626,-54.09684
2020-09-29 15:59:01+00:00,196.7681,14.9,13.92,47.84626,-54.09684
2020-09-29 16:09:01+00:00,196.7682,14.9,13.92,47.84626,-54.09684
2020-09-29 16:19:01+00:00,195.1964,14.9,14.0,47.84626,-54.09684
2020-09-29 16:29:01+00:00,196.4665,14.9,14.0,47.84626,-54.09684
2020-09-29 16:39:01+00:00,199.1564,14.9,14.0,47.84626,-54.09684
2020-09-29 16:49:01+00:00,200.0114,14.9,14.0,47.84626,-54.09684
2020-09-29 16:59:01+00:00,199.8682,14.9,14.0,47.84626,-54.09684
2020-09-29 17:09:01+00:00,201.3615,14.92,14.0,47.84626,-54.09684
2020-09-29 17:19:01+00:00,205.4498,14.9,13.76,47.84626,-54.09684
2020-09-29 17:29:01+00:00,207.5115,14.92,13.76,47.84626,-54.09684
2020-09-29 17:39:01+00:00,208.8598,15.0,13.76,47.84626,-54.09684
2020-09-29 17:49:01+00:00,211.3881,15.08,13.76,47.84626,-54.09684
2020-09-29 17:59:01+00:00,215.1198,15.05,13.76,47.84626,-54.09684
2020-09-29 18:09:01+00:00,218.3498,15.0,13.76,47.84626,-54.09684
2020-09-29 18:19:01+00:00,221.9964,15.0,13.6,47.84626,-54.09684
2020-09-29 18:29:01+00:00,226.6681,15.0,13.6,47.84626,-54.09684
2020-09-29 18:39:01+00:00,231.9965,15.08,13.6,47.84626,-54.09684
2020-09-29 18:49:01+00:00,235.8997,15.1,13.6,47.84626,-54.09684
2020-09-29 18:59:01+00:00,243.1864,15.1,13.6,47.84626,-54.09684
2020-09-29 19:09:01+00:00,251.7131,15.1,13.6,47.84626,-54.09684
2020-09-29 19:19:01+00:00,257.0915,15.1,13.37,47.84626,-54.09684
2020-09-29 19:29:01+00:00,261.2264,15.1,13.37,47.84626,-54.09684
2020-09-29 19:39:01+00:00,267.218,15.1,13.37,47.84626,-54.09684
2020-09-29 19:49:01+00:00,272.438,15.1,13.37,47.84626,-54.09684
2020-09-29 19:59:01+00:00,275.9631,15.03,13.37,47.84626,-54.09684
2020-09-29 20:09:01+00:00,283.4847,14.89,13.37,47.84626,-54.09684
2020-09-29 20:19:01+00:00,292.188,14.9,13.13,47.84626,-54.09684
2020-09-29 20:29:01+00:00,296.2563,14.9,13.13,47.84626,-54.09684
2020-09-29 20:39:01+00:00,299.353,14.9,13.13,47.84626,-54.09684
2020-09-29 20:49:01+00:00,308.5264,15.0,13.13,47.84626,-54.09684
2020-09-29 20:59:01+00:00,316.20799999999997,15.09,13.13,47.84626,-54.09684
2020-09-29 21:09:01+00:00,319.5713,15.17,13.13,47.84626,-54.09684
2020-09-29 21:19:01+00:00,325.9346,15.11,12.89,47.84626,-54.09684
2020-09-29 21:29:01+00:00,334.9163,15.08,12.89,47.84626,-54.09684
2020-09-29 21:39:01+00:00,342.5313,14.9,12.89,47.84626,-54.09684
2020-09-29 21:49:01+00:00,344.0763,14.89,12.89,47.84626,-54.09684
2020-09-29 21:59:01+00:00,345.7797,14.92,12.89,47.84626,-54.09684
2020-09-29 22:09:01+00:00,351.4979,14.9,12.89,47.84626,-54.09684
2020-09-29 22:19:01+00:00,354.4147,14.9,12.81,47.84626,-54.09684
2020-09-29 22:29:01+00:00,353.6363,15.08,12.81,47.84626,-54.09684
2020-09-29 22:39:01+00:00,354.043,15.21,12.81,47.84626,-54.09684
2020-09-29 22:49:01+00:00,355.9663,15.4,12.81,47.84626,-54.09684
2020-09-29 22:59:01+00:00,353.1379,15.27,12.81,47.84626,-54.09684
2020-09-29 23:09:01+00:00,349.3146,15.05,12.81,47.84626,-54.09684
2020-09-29 23:19:01+00:00,350.3813,14.9,12.81,47.84626,-54.09684
2020-09-29 23:29:01+00:00,348.4979,14.98,12.81,47.84626,-54.09684
2020-09-29 23:39:01+00:00,343.5079,15.1,12.81,47.84626,-54.09684
2020-09-29 23:49:01+00:00,339.3264,14.9,12.81,47.84626,-54.09684
2020-09-29 23:59:01+00:00,337.2346,15.03,12.81,47.84626,-54.09684
